Location: Summit Observatory
(39.5293°N, 75.7290°W)
Time: 03:09:05
(UTC-05:00)

Amateur Radio Satellites - All Passes

Search period start: 27 November 2014 02:39
Search period end: 28 November 2014 02:39
Location: Summit Observatory, 39.5293°N, 75.7290°W

Satellite Date Start Highest point End Downlink Frequencies (MHz)
Time Altitude Azimuth
Gurwin Techsat 1B 27 Nov 02:39:26 02:44:44 66° 102° (ESE) 02:50:00 435.225
KKS-1 27 Nov 02:41:34 02:45:13 25° 264° (W) 02:48:52 437.445
Oscar 19 27 Nov 02:46:05 02:50:15 25° 294° (WNW) 02:54:24 437.125/150
SRMSAT 27 Nov 02:48:04 02:48:57 10° 183° (S) 02:49:50 437.500
SO-50 27 Nov 03:03:38 03:08:01 55° 117° (ESE) 03:12:33 436.795
BEESAT 3 27 Nov 03:07:55 03:09:00 11° 40° (NE) 03:10:05 437.485
AO-7 27 Nov 03:21:40 03:28:47 30° 96° (E) 03:35:50 29.400- 29.500
BEESAT 2 27 Nov 03:23:22 03:25:32 14° 42° (NE) 03:27:41 435.950
RS-15 27 Nov 03:31:29 03:38:42 20° 260° (W) 03:46:09 29.354- 29.394
ISS 27 Nov 03:36:08 03:38:00 14° 16° (NNE) 03:39:51 145.825
PCSat 27 Nov 03:40:52 03:45:38 30° 52° (NE) 03:50:21 145.827
ITAMSAT 1 27 Nov 03:41:53 03:45:37 20° 296° (WNW) 03:49:19 435.822/435.867
JAS-2 27 Nov 03:47:19 03:50:09 13° 84° (E) 03:52:51 435.910
HORYU 2 27 Nov 03:50:33 03:54:54 50° 287° (WNW) 03:59:15 437.375
MOZHAYETS 4 27 Nov 03:52:44 03:57:08 48° 73° (ENE) 04:01:35
AIST 2 27 Nov 04:02:13 04:05:01 17° 44° (NE) 04:07:48 435.215
YUBILEINY 27 Nov 04:09:53 04:16:52 26° 292° (WNW) 04:23:53 435.215
Gurwin Techsat 1B 27 Nov 04:20:57 04:24:08 16° 298° (WNW) 04:27:18 435.225
PRISM 27 Nov 04:41:15 04:44:53 29° 69° (ENE) 04:48:34 437.425
BEESAT 3 27 Nov 04:43:43 04:47:55 82° 59° (ENE) 04:52:04 437.485
SO-50 27 Nov 04:45:38 04:48:55 19° 316° (NW) 04:52:18 436.795
STRAND 1 27 Nov 04:58:45 05:02:28 21° 64° (ENE) 05:06:11 437.568
BEESAT 2 27 Nov 05:00:07 05:04:20 74° 241° (WSW) 05:08:28 435.950
ISS 27 Nov 05:11:58 05:15:13 55° 35° (NE) 05:18:27 145.825
AO-7 27 Nov 05:13:45 05:21:54 59° 294° (WNW) 05:30:03 29.400- 29.500
PCSat 27 Nov 05:24:06 05:29:06 39° 249° (WSW) 05:34:04 145.827
JAS-2 27 Nov 05:29:17 05:36:22 89° 104° (ESE) 05:42:32 435.910
CUTE-I 27 Nov 05:30:46 05:34:58 24° 94° (E) 05:39:09 437.470
MOZHAYETS 4 27 Nov 05:31:52 05:34:37 16° 268° (W) 05:37:23
CUBESAT XI-V 27 Nov 05:37:19 05:41:48 45° 72° (ENE) 05:46:18 437.345
AIST 2 27 Nov 05:39:47 05:44:02 58° 242° (WSW) 05:48:11 435.215
O/OREOS (USA 219) 27 Nov 05:51:52 05:56:20 69° 292° (WNW) 06:00:48 437.305
GONETS M04 27 Nov 06:11:09 06:14:33 13° 74° (ENE) 06:17:57
PRISM 27 Nov 06:17:09 06:20:26 22° 265° (W) 06:23:45 437.425
Cubesat XI-IV 27 Nov 06:28:50 06:34:12 85° 104° (ESE) 06:39:30 437.490
STRAND 1 27 Nov 06:36:19 06:41:17 48° 260° (W) 06:46:16 437.568
AIST 1 27 Nov 06:40:25 06:44:49 90° 127° (SE) 06:49:09
ISS 27 Nov 06:49:35 06:51:32 15° 230° (SW) 06:53:29 145.825
AO-7 27 Nov 07:09:37 07:12:57 13° 314° (NW) 07:16:17 29.400- 29.500
CUTE-I 27 Nov 07:10:12 07:15:10 41° 290° (WNW) 07:20:06 437.470
JAS-2 27 Nov 07:16:11 07:20:14 17° 305° (NW) 07:24:04 435.910
CUBESAT XI-V 27 Nov 07:16:16 07:19:26 18° 268° (W) 07:22:37 437.345
SEEDS 27 Nov 07:57:32 07:59:01 12° 91° (E) 08:00:30 437.485
GONETS M04 27 Nov 08:00:57 08:09:42 75° 94° (E) 08:18:32
HO-68 27 Nov 08:11:01 08:17:14 31° 96° (E) 08:23:23 435.675
Cubesat XI-IV 27 Nov 08:11:18 08:13:31 13° 301° (WNW) 08:15:45 437.490
AAUSAT CUBESAT 2 27 Nov 08:11:27 08:13:14 12° 91° (E) 08:15:01 437.432
CANX-2 27 Nov 08:25:26 08:29:17 31° 97° (E) 08:33:07 2200.000
BRITE-PL 27 Nov 08:26:03 08:29:36 27° 96° (E) 08:33:12 437.365/2234.400
COMPASS 1 27 Nov 08:26:24 08:29:41 21° 94° (E) 08:32:57 437.405
DOVE 4 27 Nov 08:40:51 08:44:05 21° 95° (E) 08:47:24 437.250
TIGRISAT 27 Nov 08:57:09 09:00:03 18° 66° (ENE) 09:02:56 435.000
CUTE 1.7 + AOD 2 27 Nov 08:59:35 09:03:53 73° 102° (ESE) 09:08:10 437.475
ZACube-1 27 Nov 09:04:53 09:05:00 10° 90° (E) 09:05:07 437.345
CINEMA 3 27 Nov 09:06:42 09:10:15 25° 96° (E) 09:13:52 145.822/145.860
POPSAT HIP 1 27 Nov 09:08:11 09:10:56 17° 66° (ENE) 09:13:40 437.405
UNISAT 6 27 Nov 09:10:50 09:14:22 26° 69° (ENE) 09:17:54 437.425
GOMX 1 27 Nov 09:28:21 09:32:31 79° 284° (WNW) 09:36:49 467.674
SEEDS 27 Nov 09:30:59 09:35:11 56° 286° (WNW) 09:39:22 437.485
UKube-1 27 Nov 09:31:00 09:35:07 41° 99° (E) 09:39:12 .
AISAT 27 Nov 09:35:55 09:38:29 15° 92° (E) 09:41:03 437.250
FUNcube-1 27 Nov 09:36:29 09:40:00 25° 96° (E) 09:43:33 145.935
ANTELSAT 27 Nov 09:39:02 09:43:11 54° 74° (ENE) 09:47:21 437.575/2403.000
Oscar 11 27 Nov 09:41:05 09:45:26 67° 101° (ESE) 09:49:45 145.826/435.025
POLYITAN 1 27 Nov 09:41:11 09:45:09 39° 72° (ENE) 09:49:06 437.675
QB50P2 27 Nov 09:42:36 09:46:35 40° 72° (ENE) 09:50:35 145.880/145.840
DELFI C3 27 Nov 09:43:19 09:47:25 60° 101° (E) 09:51:31 145.870
AAUSAT CUBESAT 2 27 Nov 09:45:05 09:49:13 52° 286° (WNW) 09:53:19 437.432
DUCHIFAT 1 27 Nov 09:47:38 09:51:41 45° 73° (ENE) 09:55:45 145.980
50 SAT 27 Nov 09:50:53 09:53:34 17° 93° (E) 09:56:15 437.505
HO-68 27 Nov 09:58:16 10:05:06 49° 293° (WNW) 10:11:54 435.675
GONETS M04 27 Nov 10:00:47 10:07:24 23° 294° (WNW) 10:14:07
COMPASS 1 27 Nov 10:01:42 10:05:25 30° 290° (WNW) 10:09:08 437.405
CANX-2 27 Nov 10:01:46 10:05:02 22° 292° (WNW) 10:08:18 2200.000
BRITE-PL 27 Nov 10:04:49 10:08:02 22° 291° (WNW) 10:11:16 437.365/2234.400
UWE-3 27 Nov 10:05:33 10:09:47 64° 101° (E) 10:14:07 435.000/436.395/437.385
NANOSAT C BR1 27 Nov 10:07:04 10:11:19 78° 75° (ENE) 10:15:35 145.865
DX 1 27 Nov 10:07:50 10:12:10 71° 285° (WNW) 10:16:29 434.975-435.025
CUBEBUG 2 27 Nov 10:08:12 10:12:29 80° 102° (ESE) 10:16:52 437.445
HUMSAT D 27 Nov 10:10:30 10:14:21 35° 98° (E) 10:18:14 437.325/437.525
QB50P1 27 Nov 10:17:10 10:21:26 80° 258° (WSW) 10:25:42 145.935-145.965
DOVE 4 27 Nov 10:18:15 10:21:53 29° 289° (WNW) 10:25:37 437.250
BUGSAT 1 27 Nov 10:20:22 10:24:38 89° 257° (WSW) 10:28:53 437.445
TIGRISAT 27 Nov 10:32:36 10:36:32 36° 262° (W) 10:40:29 435.000
ZACube-1 27 Nov 10:37:32 10:41:45 64° 285° (WNW) 10:46:02 437.345
CUTE 1.7 + AOD 2 27 Nov 10:38:39 10:39:12 10° 297° (WNW) 10:39:45 437.475
POPSAT HIP 1 27 Nov 10:42:30 10:46:31 40° 261° (W) 10:50:32 437.405
VELOX 1 27 Nov 10:43:47 10:48:13 86° 103° (ESE) 10:52:38 145.980
CINEMA 3 27 Nov 10:43:53 10:47:24 26° 290° (WNW) 10:50:59 145.822/145.860
UNISAT 6 27 Nov 10:47:35 10:51:06 25° 264° (W) 10:54:38 437.425
ESTCUBE 1 27 Nov 10:47:39 10:51:49 35° 97° (E) 10:55:56 437.505/2401.250
UKube-1 27 Nov 11:08:08 11:10:57 17° 295° (WNW) 11:13:46 .
AISAT 27 Nov 11:11:08 11:15:22 46° 288° (WNW) 11:19:34 437.250
FUNcube-1 27 Nov 11:12:44 11:16:18 27° 290° (WNW) 11:19:55 145.935
CUBEBUG 1 27 Nov 11:18:28 11:22:50 75° 102° (ESE) 11:27:09 437.445
POLYITAN 1 27 Nov 11:18:31 11:21:15 17° 267° (W) 11:23:59 437.675
ANTELSAT 27 Nov 11:18:44 11:20:19 12° 269° (W) 11:21:55 437.575/2403.000
Oscar 11 27 Nov 11:19:40 11:21:01 11° 297° (WNW) 11:22:22 145.826/435.025
QB50P2 27 Nov 11:20:02 11:22:40 16° 267° (W) 11:25:19 145.880/145.840
DELFI C3 27 Nov 11:20:54 11:22:12 11° 296° (WNW) 11:23:30 145.870
50 SAT 27 Nov 11:25:16 11:28:59 35° 288° (WNW) 11:32:42 437.505
DUCHIFAT 1 27 Nov 11:25:29 11:27:47 14° 268° (W) 11:30:06 145.980
SO-50 27 Nov 11:35:56 11:40:33 41° 52° (NE) 11:45:11 436.795
UWE-3 27 Nov 11:44:28 11:45:49 11° 296° (WNW) 11:47:11 435.000/436.395/437.385
HUMSAT D 27 Nov 11:47:02 11:49:55 18° 293° (WNW) 11:52:49 437.325/437.525
AUBIESAT-1 27 Nov 12:15:31 12:17:21 12° 94° (E) 12:19:09 437.475
ITUPSAT 1 27 Nov 12:16:10 12:17:22 11° 90° (E) 12:18:33 437.325
M-CUBED/EXP-1 PRIME 27 Nov 12:20:54 12:23:48 16° 95° (E) 12:26:39 437.505
DANDE 27 Nov 12:21:15 12:23:34 24° 95° (E) 12:25:45 436.750
TISAT 1 27 Nov 12:22:00 12:26:13 84° 284° (WNW) 12:30:25 437.305
Oscar 19 27 Nov 12:22:17 12:27:12 51° 72° (ENE) 12:32:09 437.125/150
YUBILEINY 27 Nov 12:22:35 12:30:07 31° 70° (ENE) 12:37:34 435.215
Gurwin Techsat 1B 27 Nov 12:23:46 12:25:45 12° 59° (ENE) 12:27:45 435.225
SWISSCUBE 27 Nov 12:25:01 12:27:54 16° 92° (E) 12:30:46 437.505
ESTCUBE 1 27 Nov 12:25:01 12:28:27 22° 293° (WNW) 12:31:52 437.505/2401.250
SPROUT 27 Nov 12:36:32 12:40:47 65° 285° (WNW) 12:45:00 437.525
BEESAT 27 Nov 12:54:42 12:58:54 30° 96° (E) 13:03:04 436.000
CUBEBUG 1 27 Nov 12:58:09 12:58:34 10° 298° (WNW) 12:58:58 437.445
HORYU 2 27 Nov 13:14:21 13:16:21 13° 63° (ENE) 13:18:20 437.375
SO-50 27 Nov 13:16:58 13:20:53 24° 249° (WSW) 13:24:48 436.795
ITAMSAT 1 27 Nov 13:18:29 13:23:39 68° 74° (ENE) 13:28:50 435.822/435.867
PHONESAT 2.4 27 Nov 13:31:47 13:34:53 26° 151° (SSE) 13:38:01 2401.200-2431.200
CUSAT 1 27 Nov 13:32:39 13:34:05 14° 286° (WNW) 13:35:30 437.405
RS-15 27 Nov 13:34:33 13:39:07 14° 97° (E) 13:43:38 29.354- 29.394
VERMONT LUNAR 27 Nov 13:36:15 13:39:35 36° 155° (SSE) 13:42:56 437.305
MaSat-1 27 Nov 13:38:03 13:38:24 10° 107° (ESE) 13:38:44 437.345
AUBIESAT-1 27 Nov 13:47:53 13:52:49 75° 289° (WNW) 13:57:34 437.475
STARS 27 Nov 13:50:23 13:52:53 15° 92° (E) 13:55:22 437.465
ITUPSAT 1 27 Nov 13:50:57 13:55:45 73° 285° (WNW) 14:00:31 437.325
M-CUBED/EXP-1 PRIME 27 Nov 13:54:18 13:59:10 59° 291° (WNW) 14:03:53 437.505
Gurwin Techsat 1B 27 Nov 13:59:37 14:04:56 88° 256° (WSW) 14:10:17 435.225
SWISSCUBE 27 Nov 14:01:24 14:06:03 51° 288° (WNW) 14:10:40 437.505
Oscar 19 27 Nov 14:03:24 14:06:49 18° 268° (W) 14:10:15 437.125/150
YUBILEINY 27 Nov 14:18:53 14:27:16 55° 270° (W) 14:35:37 435.215
AO-7 27 Nov 14:19:42 14:27:09 39° 61° (ENE) 14:34:39 29.400- 29.500
O/OREOS (USA 219) 27 Nov 14:24:21 14:27:33 19° 57° (ENE) 14:30:45 437.305
BEESAT 27 Nov 14:32:36 14:36:39 28° 292° (WNW) 14:40:40 436.000
KKS-1 27 Nov 14:32:50 14:37:15 68° 102° (ESE) 14:41:40 437.445
HORYU 2 27 Nov 14:48:08 14:52:29 60° 259° (W) 14:56:54 437.375
ITAMSAT 1 27 Nov 15:01:02 15:03:36 14° 269° (W) 15:06:10 435.822/435.867
PHONESAT 2.4 27 Nov 15:09:42 15:13:25 82° 166° (SSE) 15:17:09 2401.200-2431.200
MaSat-1 27 Nov 15:10:08 15:12:40 26° 298° (WNW) 15:15:01 437.345
VERMONT LUNAR 27 Nov 15:14:17 15:17:55 84° 351° (N) 15:21:33 437.305
STARS 27 Nov 15:25:23 15:29:36 46° 288° (WNW) 15:33:48 437.465
JAS-2 27 Nov 15:38:17 15:45:19 41° 66° (ENE) 15:52:31 435.910
RS-15 27 Nov 15:38:26 15:49:19 72° 116° (ESE) 16:00:10 29.354- 29.394
MOZHAYETS 4 27 Nov 15:50:53 15:52:54 13° 90° (E) 15:54:54
O/OREOS (USA 219) 27 Nov 16:02:55 16:07:07 41° 254° (WSW) 16:11:19 437.305
KKS-1 27 Nov 16:11:46 16:13:19 12° 298° (WNW) 16:14:52 437.445
AO-7 27 Nov 16:11:52 16:19:44 47° 259° (W) 16:27:42 29.400- 29.500
Cubesat XI-IV 27 Nov 16:12:37 16:15:54 17° 62° (ENE) 16:19:11 437.490
PHONESAT 2.4 27 Nov 16:48:34 16:52:17 76° 4° (N) 16:56:01 2401.200-2431.200
CUTE-I 27 Nov 16:51:37 16:56:28 36° 69° (ENE) 17:01:19 437.470
VERMONT LUNAR 27 Nov 16:52:51 16:56:29 82° 8° (N) 17:00:08 437.305
JAS-2 27 Nov 17:23:00 17:30:10 44° 264° (W) 17:37:36 435.910
MOZHAYETS 4 27 Nov 17:25:54 17:30:30 61° 286° (WNW) 17:35:05
CUBESAT XI-V 27 Nov 17:37:25 17:39:06 12° 90° (E) 17:40:47 437.345
Cubesat XI-IV 27 Nov 17:50:06 17:55:25 65° 258° (WSW) 18:00:46 437.490
RS-15 27 Nov 17:52:46 18:02:33 36° 320° (NW) 18:12:29 29.354- 29.394
PRISM 27 Nov 18:00:20 18:04:31 55° 101° (E) 18:08:38 437.425
GONETS M04 27 Nov 18:12:52 18:20:48 35° 72° (ENE) 18:28:37
PCSat 27 Nov 18:21:57 18:26:37 31° 109° (ESE) 18:31:19 145.827
PHONESAT 2.4 27 Nov 18:27:25 18:31:04 54° 200° (SSW) 18:34:42 2401.200-2431.200
VERMONT LUNAR 27 Nov 18:31:27 18:34:51 38° 204° (SSW) 18:38:14 437.305
CUTE-I 27 Nov 18:32:02 18:36:33 28° 264° (W) 18:41:05 437.470
BEESAT 3 27 Nov 18:39:00 18:41:57 19° 111° (ESE) 18:44:56 437.485
HO-68 27 Nov 18:39:47 18:45:04 23° 58° (ENE) 18:50:20 435.675
STRAND 1 27 Nov 18:47:39 18:52:43 62° 101° (ESE) 18:57:44 437.568
BEESAT 2 27 Nov 18:55:22 18:58:49 26° 113° (ESE) 19:02:19 435.950
AIST 1 27 Nov 19:08:54 19:13:11 56° 94° (E) 19:17:32
CUBESAT XI-V 27 Nov 19:12:21 19:16:58 64° 285° (WNW) 19:21:32 437.345
CANX-2 27 Nov 19:18:30 19:21:40 21° 68° (ENE) 19:24:52 2200.000
COMPASS 1 27 Nov 19:18:42 19:20:54 14° 65° (ENE) 19:23:07 437.405
BRITE-PL 27 Nov 19:35:54 19:40:18 33° 71° (ENE) 19:44:25 437.365/2234.400
AIST 2 27 Nov 19:37:29 19:41:21 37° 115° (ESE) 19:45:18 435.215
PRISM 27 Nov 19:37:39 19:39:34 13° 297° (WNW) 19:41:28 437.425
DOVE 4 27 Nov 19:46:19 19:49:46 22° 69° (ENE) 19:53:05 437.250
CUTE 1.7 + AOD 2 27 Nov 19:51:55 19:55:55 45° 73° (ENE) 19:59:58 437.475
PCSat 27 Nov 20:04:55 20:09:54 37° 306° (NW) 20:14:55 145.827
PHONESAT 2.4 27 Nov 20:07:23 20:09:21 14° 215° (SW) 20:11:20 2401.200-2431.200
CINEMA 3 27 Nov 20:08:33 20:11:52 22° 69° (ENE) 20:15:08 145.822/145.860
GONETS M04 27 Nov 20:09:27 20:17:48 50° 271° (W) 20:26:05
RS-15 27 Nov 20:12:41 20:19:34 18° 354° (N) 20:26:34 29.354- 29.394
BEESAT 3 27 Nov 20:16:05 20:19:54 37° 307° (NW) 20:23:48 437.485
SEEDS 27 Nov 20:22:20 20:26:31 89° 76° (ENE) 20:30:45 437.485
HO-68 27 Nov 20:24:54 20:32:04 72° 256° (WSW) 20:39:17 435.675
UKube-1 27 Nov 20:25:30 20:29:23 33° 70° (ENE) 20:33:18 .
STRAND 1 27 Nov 20:28:19 20:31:22 16° 298° (WNW) 20:34:25 437.568
DELFI C3 27 Nov 20:31:33 20:35:13 33° 71° (ENE) 20:38:54 145.870
FUNcube-1 27 Nov 20:32:47 20:35:37 18° 67° (ENE) 20:38:27 145.935
BEESAT 2 27 Nov 20:33:25 20:37:01 28° 310° (NW) 20:40:40 435.950
AISAT 27 Nov 20:34:14 20:36:32 14° 63° (ENE) 20:38:49 437.250
Oscar 11 27 Nov 20:35:06 20:39:12 45° 73° (ENE) 20:43:20 145.826/435.025
AAUSAT CUBESAT 2 27 Nov 20:35:22 20:39:31 87° 257° (WSW) 20:43:43 437.432
GOMX 1 27 Nov 20:35:31 20:40:18 82° 258° (WSW) 20:44:46 467.674
50 SAT 27 Nov 20:41:26 20:42:10 10° 63° (ENE) 20:42:55 437.505
AIST 1 27 Nov 20:49:26 20:51:14 12° 291° (WNW) 20:53:03
COMPASS 1 27 Nov 20:52:12 20:56:13 47° 261° (W) 21:00:17 437.405
CANX-2 27 Nov 20:53:42 20:57:26 31° 263° (W) 21:01:12 2200.000
UWE-3 27 Nov 21:02:22 21:06:24 45° 73° (ENE) 21:10:24 435.000/436.395/437.385
DX 1 27 Nov 21:02:26 21:06:49 88° 74° (ENE) 21:11:13 434.975-435.025
HUMSAT D 27 Nov 21:02:43 21:05:59 23° 69° (ENE) 21:09:15 437.325/437.525
CUBEBUG 2 27 Nov 21:06:01 21:10:12 59° 75° (ENE) 21:14:19 437.445
BRITE-PL 27 Nov 21:14:48 21:18:48 24° 264° (W) 21:22:36 437.365/2234.400
AIST 2 27 Nov 21:16:42 21:20:06 23° 312° (NW) 21:23:32 435.215
DOVE 4 27 Nov 21:23:15 21:27:23 33° 262° (W) 21:31:20 437.250
CUTE 1.7 + AOD 2 27 Nov 21:29:52 21:32:05 14° 268° (W) 21:34:20 437.475
ZACube-1 27 Nov 21:32:55 21:37:07 89° 78° (ENE) 21:41:18 437.345
ANTELSAT 27 Nov 21:33:50 21:35:49 13° 91° (E) 21:37:48 437.575/2403.000
VELOX 1 27 Nov 21:40:41 21:45:08 70° 75° (ENE) 21:49:36 145.980
CINEMA 3 27 Nov 21:45:06 21:48:56 30° 263° (W) 21:52:42 145.822/145.860
ESTCUBE 1 27 Nov 21:46:48 21:50:46 30° 69° (ENE) 21:54:44 437.505/2401.250
ISS 27 Nov 21:53:11 21:56:02 28° 134° (SE) 21:58:54 145.825
NANOSAT C BR1 27 Nov 21:55:15 21:57:21 13° 92° (E) 21:59:26 145.865
UKube-1 27 Nov 22:02:19 22:05:36 21° 265° (W) 22:08:54 .
QB50P1 27 Nov 22:04:47 22:07:38 18° 93° (E) 22:10:29 145.935-145.965
BUGSAT 1 27 Nov 22:05:46 22:07:52 14° 92° (E) 22:09:57 437.445
DELFI C3 27 Nov 22:07:51 22:10:36 18° 267° (W) 22:13:23 145.870
FUNcube-1 27 Nov 22:07:52 22:11:44 35° 262° (W) 22:15:34 145.935
AISAT 27 Nov 22:08:16 22:12:41 57° 259° (W) 22:17:06 437.250
50 SAT 27 Nov 22:12:58 22:16:57 61° 259° (W) 22:20:57 437.505
Oscar 11 27 Nov 22:13:15 22:15:37 14° 268° (W) 22:17:59 145.826/435.025
CUBEBUG 1 27 Nov 22:13:48 22:18:09 56° 74° (ENE) 22:22:30 437.445
HO-68 27 Nov 22:19:56 22:20:53 10° 273° (W) 22:21:50 435.675
TIGRISAT 27 Nov 22:24:46 22:29:04 45° 99° (E) 22:33:25 435.000
CUSAT 1 27 Nov 22:25:57 22:29:44 21° 75° (ENE) 22:34:17 437.405
RS-15 27 Nov 22:28:23 22:37:27 27° 31° (NNE) 22:46:45 29.354- 29.394
POPSAT HIP 1 27 Nov 22:29:05 22:32:54 33° 97° (E) 22:36:42 437.405
HUMSAT D 27 Nov 22:38:13 22:41:41 26° 264° (W) 22:45:11 437.325/437.525
UNISAT 6 27 Nov 22:39:26 22:43:54 68° 102° (ESE) 22:48:27 437.425
UWE-3 27 Nov 22:41:05 22:43:11 14° 268° (W) 22:45:18 435.000/436.395/437.385
CUBEBUG 2 27 Nov 22:46:34 22:47:16 10° 269° (W) 22:47:57 437.445
DANDE 27 Nov 22:59:55 23:04:18 34° 78° (ENE) 23:10:00 436.750
POLYITAN 1 27 Nov 23:03:35 23:07:50 87° 102° (ESE) 23:12:04 437.675
AUBIESAT-1 27 Nov 23:04:13 23:06:17 13° 56° (ENE) 23:08:27 437.475
QB50P2 27 Nov 23:04:47 23:09:02 90° 107° (ESE) 23:13:16 145.880/145.840
ANTELSAT 27 Nov 23:08:32 23:12:55 58° 286° (WNW) 23:17:25 437.575/2403.000
DUCHIFAT 1 27 Nov 23:09:31 23:13:44 82° 284° (WNW) 23:17:56 145.980
M-CUBED/EXP-1 PRIME 27 Nov 23:10:09 23:12:51 17° 58° (ENE) 23:15:42 437.505
TISAT 1 27 Nov 23:13:39 23:17:52 65° 75° (ENE) 23:22:06 437.305
MaSat-1 27 Nov 23:15:47 23:16:18 11° 57° (ENE) 23:16:50 437.345
VELOX 1 27 Nov 23:21:56 23:22:10 10° 270° (W) 23:22:24 145.980
ITUPSAT 1 27 Nov 23:22:12 23:24:23 13° 62° (ENE) 23:26:35 437.325
ESTCUBE 1 27 Nov 23:23:54 23:27:37 25° 265° (W) 23:31:22 437.505/2401.250
NANOSAT C BR1 27 Nov 23:29:26 23:33:29 47° 287° (WNW) 23:37:31 145.865
ISS 27 Nov 23:29:37 23:32:37 32° 330° (NNW) 23:35:37 145.825
SPROUT 27 Nov 23:29:43 23:34:02 85° 76° (ENE) 23:38:22 437.525
SWISSCUBE 27 Nov 23:31:12 23:34:22 18° 64° (ENE) 23:37:33 437.505
BUGSAT 1 27 Nov 23:39:44 23:43:36 42° 288° (WNW) 23:47:24 437.445
QB50P1 27 Nov 23:39:46 23:43:39 36° 289° (WNW) 23:47:30 145.935-145.965
CUBEBUG 1 27 Nov 23:52:54 23:54:51 13° 269° (W) 23:56:48 437.445
BEESAT 28 Nov 00:00:35 00:04:47 32° 69° (ENE) 00:09:01 436.000
TIGRISAT 28 Nov 00:02:37 00:05:28 17° 294° (WNW) 00:08:22 435.000
POPSAT HIP 1 28 Nov 00:05:31 00:08:35 20° 293° (WNW) 00:11:39 437.405
CUSAT 1 28 Nov 00:07:57 00:12:48 50° 263° (W) 00:19:12 437.405
UNISAT 6 28 Nov 00:18:30 00:20:10 12° 297° (WNW) 00:21:50 437.425
JUGNU 28 Nov 00:32:19 00:33:08 10° 181° (S) 00:33:57 437.505
Oscar 19 28 Nov 00:35:38 00:39:18 19° 93° (E) 00:42:58 437.125/150
AUBIESAT-1 28 Nov 00:36:36 00:40:39 63° 255° (WSW) 00:45:06 437.475
RS-15 28 Nov 00:40:37 00:51:55 78° 57° (ENE) 01:03:43 29.354- 29.394
DANDE 28 Nov 00:43:31 00:47:44 28° 265° (W) 00:53:02 436.750
M-CUBED/EXP-1 PRIME 28 Nov 00:43:31 00:47:26 47° 257° (WSW) 00:51:45 437.505
STARS 28 Nov 00:47:55 00:49:54 13° 63° (ENE) 00:51:54 437.465
MaSat-1 28 Nov 00:49:11 00:50:42 15° 251° (WSW) 00:52:16 437.345
ITUPSAT 1 28 Nov 00:56:52 01:01:40 71° 258° (WSW) 01:06:30 437.325
SWISSCUBE 28 Nov 01:07:11 01:11:50 50° 260° (W) 01:16:31 437.505
ISS 28 Nov 01:08:49 01:10:03 12° 350° (N) 01:11:17 145.825
YUBILEINY 28 Nov 01:22:26 01:30:14 37° 86° (E) 01:38:00 435.215
KKS-1 28 Nov 01:30:15 01:34:35 54° 73° (ENE) 01:38:56 437.445
ITAMSAT 1 28 Nov 01:32:56 01:37:12 26° 95° (E) 01:41:27 435.822/435.867
BEESAT 28 Nov 01:38:37 01:42:37 26° 264° (W) 01:46:38 436.000
SO-50 28 Nov 01:52:00 01:54:29 15° 108° (ESE) 01:57:01 436.795
Oscar 19 28 Nov 02:13:55 02:18:52 48° 289° (WNW) 02:23:49 437.125/150
Gurwin Techsat 1B 28 Nov 02:17:00 02:22:00 40° 98° (E) 02:26:56 435.225
STARS 28 Nov 02:21:32 02:25:53 59° 259° (W) 02:30:14 437.465
SRMSAT 28 Nov 02:35:52 02:36:06 10° 185° (S) 02:36:20 437.500
